User: anonymous   Login
Location: Unspecified
(0.0000°N, 0.0000°E)
Time: 20:46:34
(UTC+00:00)
Language:

NOAA 6 - Orbit

View from above orbital plane
View from above orbital plane
View from above satellite
View from above satellite

Ground track
Ground track

The orbit data is extracted from the following two-line orbital elements,

1 11416U 79057A   17145.91748166 +.00000026 +00000-0 +25314-4 0  9998
2 11416 098.5776 134.0164 0009559 320.0087 040.0393 14.33418186976677
Epoch (UTC): 25 May 2017 22:01:10
Eccentricity: 0.0009559
inclination: 98.5776°
perigee height: 773 km
apogee height: 787 km
right ascension of ascending node: 134.0164°
argument of perigee: 320.0087°
revolutions per day: 14.33418186
mean anomaly at epoch: 40.0393°
orbit number at epoch: 97667

The dashed part of the orbit path shows where the satellite is in the earth's shadow,  

DLR